Wind_Speed
35 35 35 34 33 33 33 33 34 34 34 33 33 33 32 32 30 28 27 26 26 25 24 23 22 22 21 21 21 22 20 17 15 16 15 15 15 15 15 14 14 14 16 19 21 22 24 25 26 26 28 28 28 28 28 28 27 27 26 26 27 28 28 29 28 28 27 27 27 27 28 28 29 30 30 31 32 33 34 34 35 35 35 35 33 33
35 34 34 33 33 34 35 35 35 35 34 33 33 33 33 32 31 29 29 28 27 26 25 26 25 22 21 22 23 23 21 18 18 18 18 18 18 17 16 16 16 16 18 21 22 23 26 28 29 29 29 29 29 30 30 30 29 27 27 26 27 28 29 29 29 28 28 28 28 28 28 29 30 31 32 32 33 35 35 35 35 36 36 35 33 32
34 34 33 34 34 35 35 35 35 35 34 33 33 33 33 33 32 31 30 29 28 28 27 28 27 22 22 24 24 25 22 19 19 20 20 20 19 19 19 18 18 19 21 23 24 26 28 30 31 31 32 31 30 31 31 30 29 28 28 27 28 29 29 29 29 29 29 29 29 28 28 29 30 31 32 33 34 35 35 35 36 36 36 34 32 31
33 33 33 34 34 34 34 34 35 34 34 34 34 34 34 34 33 32 31 30 29 29 28 29 28 24 23 25 25 25 24 21 21 23 23 23 21 21 21 20 20 21 23 25 26 28 30 32 33 34 34 33 32 32 31 31 30 29 28 28 29 29 29 29 28 29 29 30 29 29 29 29 30 31 32 33 33 34 35 35 35 35 34 34 32 31
33 34 34 34 34 34 35 34 34 34 34 34 35 35 35 35 34 33 32 31 30 30 29 29 29 26 24 26 26 25 24 23 24 25 25 24 23 23 23 23 22 23 24 27 29 30 32 34 36 35 35 34 33 33 32 31 30 30 30 30 30 30 29 29 29 29 29 30 30 29 30 30 31 31 31 31 32 33 34 34 34 33 33 33 33 32
34 34 34 34 35 34 34 35 35 35 34 35 35 36 36 36 36 35 34 33 32 32 30 29 30 27 25 27 27 25 25 25 26 27 26 25 25 25 25 25 25 25 27 29 31 32 34 36 37 36 36 35 35 34 32 31 30 30 31 31 31 31 30 30 30 30 30 30 30 30 31 31 31 31 30 30 31 32 32 32 32 32 32 33 33 33
35 35 34 34 34 34 35 35 35 35 35 35 35 36 36 37 37 37 36 36 35 33 32 31 32 29 25 25 26 26 25 26 27 28 27 26 26 27 27 27 27 28 30 32 33 34 36 37 37 37 36 35 35 35 33 32 31 31 32 33 33 32 31 31 31 31 31 31 30 31 32 32 32 31 30 30 31 31 30 30 30 31 32 33 33 33
36 35 35 34 34 34 34 35 35 35 35 36 35 36 36 37 38 38 38 38 37 36 34 33 34 33 27 24 25 27 26 27 28 28 28 28 28 29 29 29 30 32 33 34 35 35 36 36 36 37 37 35 35 35 34 33 33 33 33 34 34 33 33 32 32 33 32 32 31 32 33 33 33 32 31 31 31 30 29 29 29 31 32 33 34 34
35 36 35 35 35 34 34 34 35 35 36 36 36 36 37 38 38 39 40 40 40 39 37 35 35 37 32 25 26 28 28 28 28 28 30 31 31 32 31 32 33 34 34 34 35 35 35 35 34 35 36 35 35 35 35 35 35 35 34 35 35 34 34 33 33 34 34 33 32 33 33 33 33 33 32 31 31 31 30 30 30 32 33 34 34 35
37 37 37 37 37 36 35 35 35 36 36 36 36 37 37 38 39 39 40 40 41 41 39 38 38 38 36 31 28 28 28 28 29 30 32 32 33 33 33 33 34 34 34 34 34 34 34 33 32 32 33 34 35 36 36 36 35 35 35 35 36 36 36 35 35 35 35 34 33 33 33 33 32 33 32 31 31 31 31 31 32 33 34 35 35 35
38 39 39 39 38 37 36 36 36 36 36 36 36 36 37 37 38 39 40 40 42 42 40 40 39 39 39 35 32 31 30 29 30 32 32 33 33 33 33 33 33 33 33 33 33 33 32 31 31 31 31 31 33 34 35 36 36 35 36 37 37 38 37 37 37 36 36 36 35 34 33 33 33 33 33 33 32 32 32 33 34 35 36 36 36 37
40 40 40 39 38 37 37 36 37 37 37 37 37 36 36 36 37 38 39 39 42 42 41 41 40 40 39 36 34 35 34 31 31 31 32 34 35 35 34 33 33 33 32 32 31 31 31 30 30 30 29 29 30 32 34 35 36 36 37 38 38 39 39 39 38 38 37 37 37 36 35 35 35 34 34 34 34 34 34 33 34 35 36 36 37 37
40 40 39 39 38 38 38 38 38 38 38 38 37 36 36 36 37 38 38 39 40 40 40 40 40 39 36 34 36 38 36 32 32 32 32 35 37 38 36 35 34 34 32 31 31 31 30 29 29 29 27 28 29 31 34 36 36 37 37 38 39 39 40 40 40 39 39 39 38 37 37 37 36 35 35 35 36 36 35 35 34 34 35 36 37 38
40 41 40 40 40 39 39 39 39 38 37 37 37 37 37 37 38 39 39 39 38 38 39 39 40 39 35 33 36 37 36 34 34 34 34 36 38 40 40 38 36 35 33 32 31 30 28 28 29 28 27 29 31 33 35 36 35 35 36 37 38 39 40 41 41 40 40 39 39 38 39 38 37 36 35 35 36 37 37 36 36 36 36 37 38 38
43 42 41 41 40 39 39 39 38 38 38 39 39 39 39 39 40 40 39 39 38 38 39 39 40 39 35 34 34 35 35 36 37 37 37 37 39 41 42 40 39 37 34 32 30 29 28 29 29 28 29 30 31 33 34 35 35 35 35 36 38 39 40 41 40 40 40 40 39 39 39 39 38 36 35 34 35 35 36 36 36 37 37 38 39 40
44 43 42 41 41 41 41 41 40 40 41 41 41 41 40 39 40 40 40 40 39 40 40 40 40 38 35 35 35 35 35 36 39 39 39 40 40 41 42 41 40 38 35 34 33 31 30 30 30 29 30 31 33 34 35 36 36 36 36 37 38 39 39 40 40 40 40 40 40 39 38 38 37 36 35 34 33 34 34 35 35 36 37 38 39 40
44 43 42 42 42 42 42 42 41 41 41 41 41 40 39 39 39 40 41 41 41 42 41 40 39 37 36 37 37 36 36 37 40 40 40 41 41 41 42 42 42 40 38 38 37 34 32 32 31 30 32 34 36 37 36 36 36 36 37 37 37 38 39 39 39 39 40 40 39 38 36 36 36 36 35 33 33 33 34 35 35 37 38 39 39 39
46 45 44 43 42 42 41 41 40 40 40 40 40 39 39 40 40 40 41 42 42 43 41 39 38 36 36 37 37 37 37 38 39 39 40 41 41 42 43 43 44 42 41 40 40 38 37 36 33 31 33 36 37 38 37 36 36 37 37 38 38 38 39 39 38 38 38 38 38 37 35 35 35 35 35 34 34 34 35 36 37 38 39 40 40 40
47 47 46 45 44 44 43 43 42 42 41 42 41 41 41 42 41 41 41 41 41 42 41 40 39 37 36 36 36 36 37 38 39 39 40 41 43 44 44 45 45 44 42 42 43 42 42 42 39 35 35 36 37 38 38 37 37 38 39 39 39 38 38 38 37 37 37 37 37 37 36 36 36 36 36 35 35 36 36 37 38 39 40 40 41 41
49 48 48 47 46 46 45 45 44 43 43 42 41 41 41 41 41 41 42 42 42 43 43 42 41 40 36 35 36 37 38 39 41 42 43 44 46 47 47 46 47 46 44 43 44 44 44 46 45 42 39 39 40 40 40 40 41 41 41 41 40 39 38 38 37 36 36 36 37 37 37 37 37 36 36 36 36 36 36 37 38 39 40 40 41 42
50 50 50 49 48 48 47 45 44 43 42 42 41 41 41 41 43 43 44 44 44 45 45 45 45 41 37 36 37 39 40 41 43 43 45 48 48 48 48 48 47 47 47 46 46 46 46 48 49 47 44 43 43 42 42 42 43 44 44 42 41 40 39 38 37 37 36 36 36 36 38 38 37 36 36 36 37 37 37 37 38 39 40 40 41 42
51 52 51 51 51 49 47 45 44 43 43 42 43 43 43 44 45 47 48 48 47 47 47 47 47 43 39 39 40 41 42 43 45 46 48 50 50 50 50 50 49 49 49 48 47 47 49 50 51 50 48 46 45 44 43 44 46 47 46 43 42 40 38 37 37 37 37 37 36 37 37 37 36 36 36 37 38 38 39 39 39 41 41 42 43 43
49 50 51 51 50 49 48 47 46 46 46 46 46 46 47 48 49 50 51 50 49 49 48 49 49 46 43 42 43 44 46 46 48 50 50 51 50 50 51 51 50 50 50 50 50 50 52 53 52 52 50 49 47 46 45 45 46 47 46 45 44 42 39 38 37 38 38 38 38 37 37 37 37 37 38 39 39 39 40 40 41 42 43 44 45 45
50 52 53 53 53 52 52 51 50 50 50 51 51 51 51 52 53 52 53 52 53 52 51 52 52 49 46 46 47 49 49 49 51 51 50 51 51 50 51 51 50 50 50 53 54 53 54 54 55 55 54 52 49 47 46 46 46 47 47 47 46 44 43 41 39 38 38 39 38 38 37 37 38 39 39 40 39 40 40 40 41 42 43 44 45 46
54 54 55 56 57 56 56 56 55 55 56 57 56 55 55 55 54 55 55 56 57 55 54 57 57 53 50 50 50 51 52 51 53 53 53 54 54 52 52 52 51 51 51 53 54 54 55 57 59 59 58 55 50 48 47 47 47 47 48 47 47 46 45 44 42 41 40 40 40 39 39 38 39 40 40 39 39 40 40 40 41 42 43 44 45 46
52 53 54 56 58 59 60 59 57 55 55 56 55 54 54 54 54 55 55 56 58 57 56 59 59 56 54 53 53 54 54 53 54 56 55 55 55 55 55 53 53 52 52 52 53 55 58 60 62 62 60 56 51 49 49 50 50 49 48 47 46 46 45 45 44 43 43 43 43 41 40 39 39 39 39 40 40 40 39 39 40 42 43 45 46 46
52 54 56 58 60 61 61 59 55 51 49 51 51 51 52 52 52 53 55 58 60 59 60 61 60 59 57 56 56 56 55 55 55 55 55 55 56 57 57 54 53 52 53 54 56 58 60 61 62 61 59 57 54 54 53 52 51 49 47 45 45 45 45 45 45 44 44 44 43 42 41 40 40 39 39 40 41 40 40 40 41 43 44 46 46 46
54 56 58 59 60 61 60 58 56 53 52 54 55 54 54 53 53 55 59 61 60 61 63 62 60 61 61 58 57 56 56 57 56 56 57 58 58 58 57 55 54 54 55 57 59 61 61 61 61 60 60 59 59 57 55 53 49 47 45 45 45 46 46 45 45 45 44 44 43 42 42 42 41 40 40 40 41 41 41 42 43 44 46 47 47 47
55 56 57 58 59 59 59 58 57 56 56 55 56 55 55 54 55 57 60 60 59 61 64 61 60 63 63 60 58 57 57 57 57 57 58 58 58 57 57 58 59 59 60 61 62 63 63 62 61 61 61 61 60 58 55 52 49 47 47 48 48 47 47 45 44 44 43 43 42 42 42 42 42 41 41 41 41 42 43 44 45 46 47 47 47 48
55 55 55 56 58 58 57 57 57 57 58 57 57 56 55 55 57 59 60 60 60 62 63 62 63 65 65 63 61 59 57 57 56 57 57 57 58 58 60 62 63 63 63 64 64 65 64 63 61 61 61 61 60 59 57 54 52 50 50 49 49 49 48 46 44 43 42 42 42 42 42 43 43 43 43 43 43 44 45 46 47 47 48 48 48 48
56 56 56 56 57 58 57 57 58 58 59 58 57 57 57 59 61 63 63 63 62 63 64 64 66 67 65 63 60 58 58 58 58 58 58 59 60 62 63 64 65 66 66 67 67 66 64 62 61 61 61 60 59 58 58 57 56 54 52 50 49 48 47 46 44 43 42 42 43 43 44 45 45 45 46 46 47 48 48 48 48 48 48 48 48 49
57 57 57 57 59 60 59 59 60 59 59 59 60 61 62 63 65 66 66 64 64 64 64 64 67 68 65 62 60 59 60 61 61 62 62 62 63 65 65 66 66 67 68 67 67 65 63 62 62 61 60 60 59 59 59 58 57 57 54 51 49 47 46 45 44 43 43 43 44 45 46 47 47 48 48 49 50 50 51 51 50 49 49 50 50 51
57 56 56 57 59 60 58 59 60 59 60 63 65 66 66 66 67 67 67 66 65 64 64 65 68 67 64 63 64 63 62 62 62 64 64 65 66 66 66 66 66 67 67 66 65 64 63 62 62 61 61 60 60 59 59 58 58 57 55 52 50 48 46 45 44 44 44 45 47 48 49 50 50 51 51 51 52 52 53 53 53 53 53 53 54 54
56 56 56 57 58 58 56 57 59 61 65 66 66 66 66 66 68 69 68 68 67 66 66 68 69 68 67 67 66 65 63 63 64 66 67 67 67 67 67 66 66 65 65 64 63 62 62 62 62 61 61 60 60 59 59 59 58 57 55 53 51 49 48 47 46 47 48 49 50 51 52 52 52 52 52 53 54 55 55 56 57 57 57 57 56 56
57 57 57 57 58 58 56 57 62 66 67 65 63 63 64 65 67 68 69 69 68 67 67 67 68 67 65 65 64 64 65 65 65 66 66 66 65 65 64 63 63 62 62 62 62 62 62 62 62 62 61 61 60 59 59 58 57 56 54 53 52 51 50 50 50 51 52 54 55 56 55 55 54 53 54 55 56 57 58 58 58 58 59 59 59 59
59 60 60 60 60 60 60 62 66 67 65 63 62 62 63 65 67 68 69 69 67 65 63 64 66 65 63 62 63 63 64 63 63 64 63 62 61 61 61 61 61 61 62 62 62 62 62 62 62 62 62 61 60 59 58 57 56 55 55 55 54 54 54 54 55 56 57 58 59 59 58 58 57 58 58 59 60 60 61 60 60 60 61 62 62 62
62 63 64 65 66 66 66 67 68 67 66 64 63 62 62 64 65 64 66 68 66 63 62 64 65 63 60 60 60 60 61 60 60 60 60 60 61 61 61 62 62 62 63 63 63 63 63 63 62 62 61 60 58 57 56 56 56 56 56 56 56 56 57 58 59 60 60 60 61 61 61 62 62 62 63 64 64 64 64 64 64 64 64 64 65 65
63 64 64 66 68 68 69 70 71 72 70 64 61 59 59 60 60 60 63 66 64 62 62 62 61 59 58 58 58 59 59 59 59 59 60 61 62 62 63 63 63 64 64 64 64 63 63 62 61 60 59 58 58 57 57 57 57 57 57 58 58 59 60 60 61 62 62 62 63 63 64 65 66 67 67 68 68 68 68 68 68 68 68 68 68 68
60 61 60 62 64 65 67 70 72 73 69 61 58 58 58 59 59 59 63 63 59 57 58 57 56 56 56 57 58 59 60 60 60 60 60 61 62 63 63 64 64 64 64 64 63 63 62 61 61 60 59 58 59 59 58 58 59 59 59 60 60 61 62 62 62 63 64 64 65 66 67 68 69 70 70 71 71 71 72 72 72 72 72 71 71 70
60 61 61 62 63 63 64 66 68 69 65 59 58 59 59 59 59 61 64 62 55 53 55 54 53 53 53 54 56 56 58 58 58 59 60 61 62 62 62 62 62 62 61 61 61 60 60 59 59 59 59 59 60 60 60 60 61 61 62 62 63 63 64 64 65 65 66 67 69 70 71 72 72 73 73 74 74 74 74 74 75 75 75 75 74 74
59 60 61 63 63 63 64 66 67 67 63 58 57 58 59 60 62 64 64 59 54 55 56 55 54 53 51 51 51 52 54 55 56 57 58 58 59 60 60 60 60 59 59 58 58 57 57 57 58 58 59 59 59 60 60 61 62 64 65 65 65 66 66 67 67 68 69 71 72 73 74 75 76 76 76 76 76 76 76 77 77 77 77 77 77 77
57 58 60 61 61 62 63 64 67 67 61 56 56 58 59 61 64 63 59 55 54 55 55 55 55 53 52 52 52 53 55 56 56 57 57 57 58 58 58 59 59 58 58 57 57 57 57 58 59 59 60 60 61 62 63 64 65 66 66 67 67 68 68 69 70 72 73 75 76 77 78 78 78 78 78 78 78 78 78 79 79 79 79 78 78 77
53 55 58 58 57 59 62 65 68 64 55 51 53 54 55 56 57 55 53 52 53 53 53 53 53 52 53 53 54 55 57 57 58 58 58 58 58 59 59 59 58 58 58 57 58 58 59 59 60 61 62 63 64 65 66 67 67 68 68 69 69 70 71 73 74 76 77 79 79 80 80 80 80 80 80 80 80 80 79 79 80 79 79 79 78 78
52 53 54 53 53 55 58 61 62 56 49 48 51 50 50 51 50 50 51 52 52 53 52 52 52 53 54 55 55 57 58 58 58 58 57 56 56 57 57 58 58 58 58 58 59 60 60 61 62 63 64 65 66 68 69 69 69 70 70 71 72 73 75 76 78 79 80 81 81 81 82 82 82 82 82 82 82 82 81 81 81 80 80 80 79 79
56 54 54 52 51 52 53 53 52 49 48 49 51 51 51 52 52 52 52 53 53 54 53 51 51 52 54 55 55 55 55 55 56 56 55 55 55 56 57 58 59 59 60 60 61 62 63 64 64 65 66 68 69 70 72 73 73 74 74 75 76 77 79 80 81 82 82 83 83 83 83 83 84 84 84 84 85 84 84 83 82 81 81 80 79 79
61 59 58 57 56 55 55 53 51 50 50 50 51 52 53 54 54 55 54 54 54 54 52 50 50 51 52 54 53 52 52 53 54 55 56 57 57 58 59 60 61 61 62 63 64 65 66 66 67 68 69 70 72 73 75 76 77 78 79 80 81 82 83 84 84 84 84 84 84 85 85 85 85 86 86 86 86 86 85 85 84 83 82 81 80 79
68 67 66 65 63 61 60 58 56 55 55 54 53 53 53 54 55 55 55 54 53 52 51 50 51 52 53 54 54 54 55 55 56 57 59 59 60 61 62 62 63 64 65 66 66 67 68 69 70 71 72 73 75 75 77 78 80 81 82 83 85 86 86 86 86 86 86 86 86 87 87 87 88 88 87 87 87 86 85 84 84 83 82 81 80 79
66 67 68 69 68 67 65 63 61 61 60 59 59 58 57 57 56 55 55 55 54 54 53 52 53 54 55 56 57 58 59 60 61 62 62 63 64 64 65 66 66 66 67 68 68 69 70 71 72 73 74 75 76 77 78 80 82 83 84 85 87 88 88 88 88 87 87 88 88 88 89 89 89 89 89 88 88 87 85 84 83 82 81 80 80 79
56 58 61 65 67 68 69 68 67 66 65 64 63 61 60 59 58 56 55 55 54 53 54 54 54 55 57 59 61 62 63 65 65 65 65 65 65 65 66 66 67 68 68 69 69 70 71 72 73 74 75 77 78 80 81 82 83 84 85 85 87 87 88 88 89 89 89 89 89 89 89 89 89 88 88 87 87 87 86 85 84 83 81 80 80 80
48 50 52 56 60 62 64 64 62 61 60 60 60 59 59 59 59 59 59 59 58 58 59 60 61 62 63 65 66 67 67 67 67 66 66 65 65 65 65 66 67 68 68 69 70 71 73 74 75 76 78 79 80 82 83 83 84 85 85 86 87 88 89 89 89 89 89 89 88 88 88 87 87 87 86 86 85 85 85 85 85 84 83 82 81 80
51 49 49 51 53 54 54 54 54 54 55 56 56 56 56 57 58 59 61 62 63 63 64 65 66 66 67 67 67 68 67 67 66 66 66 66 66 66 66 66 67 68 69 71 73 74 76 78 79 80 81 82 82 83 84 85 85 86 86 87 88 88 88 88 87 87 86 85 85 85 84 84 83 84 84 84 84 84 84 84 84 84 83 83 83 82
Wind_Direction
215 217 218 218 219 220 221 222 223 223 223 222 222 222 220 219 219 222 226 228 231 231 232 232 226 221 223 227 228 230 228 226 231 239 243 247 250 256 264 271 277 282 286 289 293 298 302 304 306 310 312 316 317 318 318 317 316 314 312 310 308 309 310 311 311 310 308 303 300 298 296 294 291 289 289 289 290 291 292 293 294 296 297 299 300 299
216 217 217 217 218 219 220 222 223 224 224 223 223 223 222 221 221 224 228 230 232 233 233 235 232 223 223 228 232 235 232 227 233 240 244 249 254 261 268 275 281 286 287 287 291 295 298 300 304 306 308 311 314 314 314 314 313 311 309 307 307 307 309 310 310 310 308 304 302 301 299 295 292 289 287 287 288 288 290 291 292 294 296 298 299 299
217 218 217 217 218 220 221 223 224 225 225 225 225 225 224 223 223 225 229 232 234 235 233 236 236 227 225 228 232 238 239 234 238 243 247 252 259 265 271 277 283 285 286 288 291 293 295 298 301 303 305 308 310 310 310 310 309 308 306 306 305 306 307 308 308 308 307 305 303 302 301 298 295 292 288 286 286 287 288 290 292 294 296 297 298 298
218 219 219 219 220 221 222 223 225 226 226 226 225 225 225 225 226 227 230 233 236 237 236 237 238 230 227 232 233 237 241 241 244 247 250 254 259 265 269 274 278 279 282 285 288 291 293 295 298 300 302 305 306 306 306 306 306 305 303 303 303 303 303 304 304 304 303 303 302 301 300 299 297 294 291 288 286 286 287 289 291 294 295 296 297 297
218 219 220 220 221 222 223 224 225 226 227 227 226 226 226 227 229 230 232 234 236 239 239 240 241 234 229 233 236 239 243 245 247 249 253 257 261 265 269 272 273 276 279 283 285 288 291 293 295 297 300 302 302 302 303 303 302 301 300 300 301 300 300 300 300 301 300 300 300 300 299 298 297 296 293 290 287 286 287 289 291 293 295 296 296 297
220 221 221 221 222 223 225 225 226 227 227 228 227 228 228 228 230 232 234 236 238 240 241 243 245 238 230 234 238 240 245 248 250 252 254 260 265 267 270 273 275 278 280 282 284 286 288 290 293 295 297 299 299 300 300 300 298 298 298 298 298 298 298 298 298 299 299 298 298 299 298 298 297 296 293 290 287 286 287 289 291 293 294 294 295 295
222 223 223 223 224 225 227 228 229 229 230 230 230 231 231 231 232 233 235 237 239 241 243 246 249 243 231 231 240 242 243 246 251 255 258 261 265 267 270 273 275 277 278 279 281 284 285 288 291 293 294 296 297 297 297 296 296 296 296 296 297 296 296 297 296 296 296 296 296 297 297 296 295 295 292 289 287 286 286 287 289 290 291 292 292 293
224 225 225 226 226 227 229 230 231 232 233 233 233 234 234 234 235 236 237 239 241 243 245 246 252 253 239 229 239 245 244 245 250 257 261 263 266 268 270 272 273 274 275 277 279 281 283 286 289 291 292 293 294 294 294 294 294 294 294 295 295 295 295 296 295 295 295 295 295 295 294 293 293 293 292 290 288 286 285 285 286 288 288 289 290 291
226 227 228 228 228 229 229 231 232 233 234 235 235 236 237 238 238 239 239 241 243 245 247 248 252 257 252 241 243 246 247 249 251 255 261 266 269 271 272 272 273 273 274 276 277 278 280 282 283 285 288 290 291 292 293 293 293 293 293 293 293 294 294 295 295 294 294 294 293 293 292 292 292 292 292 291 289 288 286 284 284 285 286 287 288 289
226 227 228 228 228 229 229 231 233 234 235 236 237 238 239 240 241 241 242 243 246 247 248 250 252 257 259 255 252 252 252 254 257 261 265 269 270 271 271 272 273 274 275 275 275 276 276 277 277 278 281 285 289 291 292 292 292 292 293 293 294 295 295 294 295 294 294 293 293 293 293 293 293 292 292 291 289 288 286 284 284 284 285 286 287 288
226 228 229 229 230 230 231 232 234 236 238 238 239 240 241 242 242 244 245 246 248 249 250 252 254 257 260 260 260 260 258 260 266 270 271 272 271 271 271 273 274 275 275 275 274 274 274 274 275 275 277 282 286 288 289 290 290 291 292 293 294 295 295 295 295 294 293 293 293 294 294 294 293 293 292 291 289 287 286 285 284 284 285 286 287 288
228 229 230 231 232 233 233 235 236 238 240 240 241 242 243 244 244 245 246 247 249 250 252 254 255 256 258 262 267 267 266 269 272 273 274 275 275 275 277 278 279 279 279 278 277 276 276 276 276 276 278 281 282 284 285 286 287 289 290 291 292 293 293 294 294 293 291 291 292 294 295 294 293 293 293 292 291 290 288 287 286 286 287 288 289 290
232 232 233 233 234 234 235 236 237 239 241 242 244 245 246 247 247 247 247 248 250 251 253 254 256 256 256 260 267 270 273 277 276 275 276 277 279 281 283 284 284 284 283 281 280 280 279 277 276 277 279 279 279 279 280 281 283 285 287 288 289 289 290 291 292 291 290 290 291 293 294 293 293 293 292 292 291 291 290 290 289 289 289 290 291 291
235 235 234 235 235 236 236 237 239 241 243 245 246 247 247 248 249 249 249 251 252 253 254 255 257 256 255 257 263 269 275 278 277 276 277 278 282 286 287 287 287 286 285 283 281 281 279 277 277 278 278 277 277 277 277 278 280 282 284 285 286 286 287 289 290 290 289 290 291 292 292 291 291 290 291 291 291 291 291 290 290 290 290 290 291 291
235 235 235 236 237 238 239 240 241 242 243 244 245 246 247 249 251 252 253 254 254 254 255 256 257 257 258 259 261 265 270 273 275 276 277 279 282 285 286 288 288 288 287 285 284 283 281 280 279 278 277 276 276 275 276 277 279 280 282 282 282 283 285 286 287 288 289 289 290 290 290 289 288 287 287 288 289 289 289 289 290 290 290 290 290 290
238 238 237 237 238 238 239 239 240 241 242 244 246 248 250 252 254 255 256 256 257 256 255 255 257 258 260 262 262 263 265 268 271 274 277 280 281 282 284 285 285 285 286 286 286 285 283 281 280 279 278 278 277 276 277 278 280 281 281 280 280 281 282 284 286 287 287 288 287 287 286 285 284 284 285 285 286 287 287 288 289 288 288 288 288 289
243 243 241 241 241 241 241 242 242 243 245 246 248 250 252 254 254 256 257 257 257 257 256 257 258 260 262 263 263 264 265 266 269 272 276 278 279 281 282 283 283 284 285 286 288 287 285 281 279 279 281 282 282 280 279 279 280 281 280 279 279 279 281 283 285 286 286 286 285 284 283 282 282 282 283 284 285 286 287 287 287 286 285 286 286 287
243 244 243 242 242 243 243 243 244 245 245 247 249 250 251 252 252 254 255 256 257 259 259 259 259 259 259 261 263 264 265 266 268 271 272 274 276 278 278 280 282 284 286 287 288 289 286 283 280 281 283 284 283 282 281 281 281 280 279 279 279 280 282 283 284 285 285 285 284 283 282 282 282 282 282 283 285 287 287 287 287 286 285 285 285 286
241 243 243 242 241 242 242 242 244 245 246 248 249 249 249 251 253 254 256 258 259 261 261 259 258 257 256 259 262 264 265 268 269 270 271 272 273 274 274 276 278 282 284 285 287 287 285 283 282 281 282 282 281 282 284 285 284 282 282 281 282 284 285 285 284 285 285 285 284 284 284 282 282 281 282 283 285 286 286 287 287 287 287 286 286 286
243 244 244 244 244 243 243 244 246 248 249 250 250 250 250 252 254 255 257 258 259 261 261 260 258 257 257 259 262 264 266 268 270 272 273 273 273 273 274 276 278 280 282 283 283 282 281 281 282 282 282 281 279 281 284 286 287 286 285 285 287 288 288 288 287 286 285 285 285 285 285 284 283 283 283 283 284 285 286 286 287 287 287 287 287 287
243 244 245 245 245 245 246 247 249 250 250 250 251 251 252 253 254 255 256 256 257 259 260 261 260 259 260 261 262 264 267 268 270 272 273 273 273 274 276 277 278 280 281 281 280 280 279 280 282 283 284 283 281 282 284 286 287 287 287 288 290 290 290 290 290 288 286 285 285 285 285 285 285 284 284 283 283 284 285 286 286 286 286 286 286 285
243 244 244 245 245 246 248 248 248 248 249 250 250 251 252 253 253 253 254 255 256 257 259 261 262 261 262 263 263 265 267 269 270 270 271 272 274 275 276 277 278 278 279 279 280 281 281 281 282 284 285 284 284 285 286 287 287 288 290 292 293 292 291 291 291 289 286 284 284 284 284 285 285 284 283 282 283 283 284 285 286 286 285 285 284 284
245 245 245 246 247 248 247 247 247 247 247 248 249 250 252 252 253 254 255 256 256 256 258 261 263 263 263 265 266 267 268 269 269 270 270 272 273 274 275 276 277 277 278 279 279 279 280 281 282 283 284 284 284 286 287 288 288 290 293 295 296 294 292 291 290 287 285 283 283 283 283 283 283 282 281 281 281 282 284 284 285 285 285 285 285 284
242 243 244 245 245 245 245 245 245 246 247 248 250 252 252 253 254 254 255 256 256 257 259 261 263 265 266 267 267 269 270 270 271 271 271 271 271 271 272 273 275 276 277 277 278 278 280 281 282 283 283 284 286 288 288 289 290 291 294 295 294 292 291 290 289 286 283 283 283 282 281 281 281 281 280 280 281 282 284 285 285 286 286 287 287 286
243 243 244 244 244 244 244 245 246 249 251 252 253 253 253 253 252 252 253 255 256 259 261 261 263 266 267 268 269 270 271 271 271 270 269 269 270 270 271 272 272 273 274 275 277 279 280 281 282 283 284 286 288 289 289 290 292 292 292 291 290 289 288 288 288 286 284 283 283 282 281 280 280 280 280 280 281 283 285 285 285 286 286 287 288 288
241 242 243 244 245 246 248 250 254 258 259 258 257 256 256 255 254 254 255 255 257 260 260 260 264 266 266 266 267 267 267 268 268 269 269 270 271 270 270 270 271 272 274 275 277 279 279 280 281 283 285 288 290 290 289 290 292 291 290 288 287 286 286 287 287 286 284 284 284 283 281 280 280 280 280 281 282 284 285 285 285 285 286 286 287 288
239 241 241 243 246 249 251 253 254 255 255 254 253 253 252 252 252 252 251 253 258 259 258 260 264 264 264 264 264 264 265 264 265 266 268 269 269 270 271 272 274 275 276 276 277 277 278 279 282 284 287 289 289 289 289 289 289 288 287 285 284 284 283 284 284 283 283 283 283 283 281 280 280 281 281 281 282 283 285 285 285 285 286 287 287 288
239 241 243 244 246 248 250 250 248 247 247 248 248 247 247 247 247 248 250 255 258 257 257 262 264 263 264 264 263 263 263 263 263 264 265 266 267 270 272 274 274 274 274 275 275 275 277 279 281 284 286 287 288 289 289 288 287 285 284 283 282 282 281 281 281 280 280 281 281 281 281 282 282 282 281 281 282 283 285 286 287 287 287 287 288 289
239 241 243 244 246 247 247 247 247 247 248 248 248 248 248 249 249 251 254 258 258 256 259 263 262 261 264 264 262 262 262 262 263 264 265 266 268 270 272 272 271 271 272 273 274 276 278 280 282 284 286 287 288 289 288 287 286 285 284 284 284 283 282 281 280 279 279 279 279 280 281 282 283 283 282 282 282 284 286 287 288 287 287 287 288 289
239 241 242 243 244 244 245 246 247 248 248 248 249 250 250 251 252 254 257 258 257 257 260 261 259 260 264 264 263 264 263 262 263 264 266 268 269 269 269 270 271 272 273 274 276 277 279 281 283 285 285 286 287 287 287 286 285 285 285 285 285 285 284 282 281 280 280 279 280 281 282 283 283 283 283 284 284 284 286 287 288 288 287 287 287 288
240 241 241 242 244 243 242 245 247 247 248 249 249 249 250 251 253 255 256 256 255 256 258 259 259 261 264 264 264 265 264 264 264 264 265 265 266 267 268 270 272 274 275 276 277 279 281 282 284 284 284 284 285 285 285 286 286 286 286 285 284 283 282 282 282 281 280 279 280 282 283 284 284 284 284 285 285 286 287 288 289 288 288 287 287 287
243 243 242 243 246 244 242 244 246 247 249 249 247 248 250 252 254 255 255 255 255 257 258 259 260 264 267 266 264 264 264 264 264 265 265 266 266 267 269 271 273 274 275 277 278 280 282 282 282 282 282 282 283 283 284 285 287 287 287 286 284 283 282 281 281 280 280 281 283 285 287 287 286 286 285 286 286 287 288 289 290 289 288 288 289 289
245 245 244 245 247 246 244 244 246 249 250 248 247 250 253 253 254 255 254 255 256 258 259 259 262 265 265 264 263 263 263 265 266 267 268 268 268 269 270 271 272 273 275 277 278 280 280 280 280 280 280 281 282 283 284 285 286 286 286 286 285 284 283 282 281 281 282 284 286 288 289 289 288 288 287 287 288 289 290 290 291 291 290 290 290 291
245 246 247 247 249 248 246 245 248 250 249 248 248 251 252 252 254 255 255 256 257 258 258 259 261 263 263 264 266 267 267 268 268 267 267 268 269 270 271 272 273 274 275 276 277 277 277 277 277 278 278 279 280 281 283 284 284 284 284 283 283 282 281 281 281 281 282 284 286 287 288 288 288 287 287 287 289 290 291 292 292 292 292 292 292 293
246 247 248 249 251 251 248 248 250 251 249 247 248 248 249 251 253 255 256 256 256 257 259 260 261 263 264 266 267 267 267 267 267 267 268 269 270 271 272 272 273 274 274 274 274 274 274 275 276 276 277 278 279 281 282 282 282 282 281 281 281 281 281 281 281 283 284 285 287 287 288 287 286 285 285 286 288 290 291 292 292 292 292 293 293 293
248 249 250 250 251 252 250 249 251 252 251 249 248 248 249 252 253 254 256 256 257 259 262 262 263 263 264 265 265 265 266 266 267 268 269 270 271 272 272 272 273 272 272 272 272 273 273 274 275 276 277 278 279 280 280 280 280 280 280 281 281 281 281 282 283 284 285 286 287 288 288 287 287 286 286 286 288 289 290 290 290 290 291 291 292 292
249 250 251 252 252 252 252 252 253 255 253 251 250 250 250 252 254 257 259 258 257 260 262 262 263 264 264 265 265 265 266 267 268 269 270 271 271 271 272 272 272 272 272 272 272 272 273 274 274 275 276 277 277 277 278 278 279 279 280 280 281 281 281 282 283 284 285 286 287 287 288 288 287 287 287 288 288 289 289 289 289 290 290 290 290 291
249 250 251 252 253 254 254 255 256 257 254 250 250 252 253 254 257 259 261 259 257 259 262 264 264 265 265 265 266 266 267 267 268 269 269 269 269 270 270 270 271 271 271 271 271 272 272 273 273 273 274 274 274 275 275 276 277 278 278 279 279 280 281 282 282 283 284 285 286 287 287 288 288 289 289 289 289 290 290 290 291 291 291 291 291 291
246 248 248 250 251 252 254 255 256 256 254 251 251 253 253 256 258 260 261 260 258 261 264 266 266 265 265 265 265 265 266 266 267 268 267 267 267 267 267 267 267 268 268 269 270 270 270 271 271 271 271 271 272 273 274 275 276 277 277 278 279 280 280 281 281 282 283 284 285 287 288 289 289 289 290 290 290 290 291 291 292 292 292 292 293 292
244 244 245 247 249 250 252 253 255 256 254 252 252 254 256 258 260 260 261 261 261 263 266 267 267 266 265 265 264 263 264 266 267 267 268 268 268 267 267 267 267 267 267 268 268 268 269 269 269 269 270 271 272 273 275 276 277 278 279 279 280 280 280 281 282 283 284 286 287 289 290 290 290 291 291 291 291 291 292 292 292 292 293 293 293 293
247 246 246 247 249 250 252 253 255 257 257 256 257 259 261 261 261 260 262 264 264 264 266 267 267 266 265 265 263 262 263 265 266 267 268 269 269 270 271 271 271 271 271 271 270 270 270 270 270 271 271 272 273 274 275 277 278 279 280 280 281 281 282 283 284 285 286 288 289 290 291 291 291 291 291 291 291 291 292 292 292 292 292 292 291 291
247 248 248 249 249 250 252 253 255 257 259 259 260 261 261 261 262 263 265 267 266 265 265 266 266 265 264 263 263 263 264 266 267 268 268 268 269 270 271 272 273 273 273 273 273 273 273 273 273 274 274 275 275 276 277 278 279 280 281 281 282 283 284 285 286 287 288 289 290 290 290 290 290 290 290 290 290 290 290 290 290 290 289 289 289 288
242 243 246 248 249 250 250 250 252 256 259 260 259 260 260 261 264 266 266 265 264 264 264 264 264 264 263 263 263 264 265 266 267 267 267 268 268 269 270 271 272 272 272 273 273 272 273 273 273 274 274 275 276 277 278 279 280 280 281 282 283 284 285 286 287 287 288 288 288 289 289 289 289 289 289 289 288 288 288 287 287 287 286 286 286 285
237 238 240 242 243 244 245 245 249 254 256 255 255 256 258 259 261 261 261 261 263 263 263 264 264 263 263 264 264 264 265 265 266 266 266 265 265 266 267 268 269 270 270 270 270 270 270 270 271 272 273 274 276 277 278 279 279 280 281 282 283 284 285 286 286 287 287 287 287 288 288 288 288 288 287 287 287 286 286 285 285 285 284 284 284 283
237 237 239 240 240 242 243 244 246 249 248 247 249 251 252 253 254 256 257 258 260 262 263 265 265 264 263 263 263 262 262 262 262 262 261 260 260 261 262 263 264 266 267 267 268 269 269 270 271 272 274 275 276 277 278 279 279 280 280 281 282 283 284 285 286 286 286 286 287 287 287 287 287 286 286 286 286 286 286 285 285 285 284 284 284 283
243 242 243 244 243 244 246 246 246 247 247 246 247 248 248 250 252 253 255 255 257 258 259 259 259 260 260 259 257 256 255 254 255 256 256 257 259 260 261 263 264 265 267 268 268 269 270 271 272 273 275 276 277 277 278 278 279 279 280 281 282 283 284 284 285 286 286 286 286 286 286 286 286 286 286 286 286 286 286 286 286 286 285 285 285 285
245 245 246 248 248 250 251 250 249 250 250 249 249 249 249 250 251 251 253 253 254 256 256 255 255 255 255 254 253 253 254 255 257 258 259 260 262 264 265 267 267 268 268 269 270 271 272 273 274 275 275 276 277 278 279 279 280 281 281 282 283 284 285 285 285 286 286 286 286 286 286 286 286 286 286 286 286 286 286 286 285 285 285 285 285 285
248 248 248 250 252 253 255 254 253 253 252 252 252 252 253 254 255 255 255 256 256 255 255 255 254 254 254 254 255 257 260 262 264 266 267 268 269 270 270 271 271 272 271 272 272 273 273 274 274 275 276 277 278 279 280 282 283 283 284 284 285 285 285 286 286 286 286 286 286 286 286 286 286 286 286 286 285 285 285 285 285 284 284 284 284 284
245 246 249 251 252 253 255 256 256 256 256 256 257 257 258 259 259 258 256 256 255 254 253 253 253 253 255 257 260 262 264 267 269 270 271 272 272 272 272 272 273 273 273 274 274 274 274 275 275 276 277 278 280 281 282 284 285 285 285 285 285 285 285 285 286 286 286 286 286 286 286 286 286 286 286 286 286 286 286 285 285 285 284 284 283 283
234 237 241 245 249 252 254 256 257 258 259 259 259 259 259 259 258 258 257 256 256 256 256 256 256 256 258 260 263 265 267 269 270 271 271 271 270 269 269 270 270 271 272 272 273 274 276 277 277 278 279 280 281 282 283 284 285 285 285 285 285 285 285 285 285 285 285 285 285 285 285 285 285 285 285 285 285 286 286 286 286 285 285 284 284 283
230 232 234 236 241 245 247 248 249 251 253 255 255 256 256 256 256 258 258 259 259 259 259 260 260 261 261 263 264 265 266 267 267 267 267 267 267 267 267 268 269 270 272 273 275 276 278 279 280 281 281 282 282 283 284 284 285 285 286 286 286 286 286 286 285 285 285 285 285 285 285 284 284 284 284 285 285 285 285 285 285 285 285 285 285 284
Height
5827 5829 5831 5834 5836 5838 5840 5841 5842 5844 5846 5848 5849 5851 5853 5856 5857 5858 5859 5860 5861 5862 5863 5864 5865 5867 5868 5869 5869 5870 5871 5873 5873 5873 5874 5874 5874 5874 5875 5875 5875 5875 5875 5873 5872 5871 5870 5869 5869 5869 5868 5867 5866 5866 5865 5864 5864 5863 5861 5860 5859 5857 5856 5855 5854 5853 5852 5851 5850 5849 5848 5847 5846 5844 5843 5842 5840 5839 5838 5837 5835 5834 5833 5832 5831 5829
5824 5826 5829 5831 5833 5834 5836 5837 5839 5841 5843 5845 5847 5849 5851 5853 5854 5855 5856 5857 5858 5860 5861 5861 5862 5865 5866 5866 5867 5867 5869 5871 5871 5871 5871 5871 5872 5872 5872 5873 5873 5873 5872 5871 5870 5869 5867 5866 5866 5866 5865 5865 5864 5863 5862 5861 5860 5860 5859 5857 5856 5855 5854 5853 5851 5850 5849 5848 5847 5846 5845 5844 5842 5841 5840 5839 5837 5836 5834 5833 5832 5831 5830 5829 5828 5826
5822 5824 5826 5827 5829 5831 5833 5835 5837 5838 5841 5843 5845 5846 5848 5850 5852 5853 5853 5854 5856 5857 5858 5858 5859 5862 5864 5864 5864 5865 5866 5869 5869 5869 5869 5869 5869 5870 5870 5870 5870 5870 5869 5868 5867 5866 5865 5863 5863 5862 5862 5862 5861 5860 5859 5858 5857 5856 5855 5854 5853 5852 5851 5850 5849 5847 5846 5845 5844 5843 5842 5840 5839 5837 5836 5835 5833 5832 5831 5830 5828 5828 5826 5826 5825 5823
5820 5821 5823 5825 5827 5828 5830 5832 5834 5836 5838 5840 5842 5844 5845 5847 5848 5849 5851 5852 5853 5854 5855 5855 5856 5859 5861 5861 5862 5863 5864 5866 5866 5866 5866 5866 5867 5868 5868 5868 5868 5867 5866 5865 5864 5863 5862 5861 5860 5859 5859 5858 5858 5857 5856 5855 5854 5853 5852 5851 5850 5849 5848 5847 5846 5844 5843 5842 5841 5840 5839 5837 5835 5834 5832 5831 5830 5828 5827 5826 5825 5824 5823 5822 5821 5820
5816 5817 5820 5822 5823 5825 5827 5829 5831 5833 5835 5837 5839 5840 5842 5844 5845 5847 5848 5849 5850 5850 5851 5852 5852 5856 5859 5859 5859 5861 5862 5863 5863 5863 5863 5864 5865 5865 5865 5865 5865 5865 5864 5863 5862 5861 5859 5858 5857 5856 5855 5855 5854 5853 5852 5852 5851 5850 5849 5848 5847 5846 5845 5844 5842 5841 5840 5838 5837 5836 5835 5834 5832 5831 5829 5828 5826 5825 5824 5823 5822 5821 5819 5818 5817 5816
5812 5814 5817 5818 5820 5822 5824 5826 5828 5830 5832 5833 5835 5837 5839 5841 5842 5843 5845 5846 5847 5847 5849 5850 5849 5851 5855 5856 5857 5859 5860 5860 5860 5859 5861 5862 5862 5862 5862 5862 5862 5862 5861 5859 5859 5858 5856 5855 5854 5853 5852 5851 5850 5849 5848 5848 5847 5846 5846 5845 5844 5843 5841 5840 5839 5838 5837 5835 5834 5833 5832 5830 5829 5827 5826 5824 5823 5822 5821 5820 5818 5817 5816 5815 5814 5813
5809 5811 5813 5815 5817 5819 5821 5823 5825 5827 5829 5830 5832 5834 5836 5837 5838 5840 5841 5842 5843 5844 5846 5847 5845 5846 5851 5854 5855 5856 5857 5857 5856 5856 5858 5859 5859 5859 5859 5859 5859 5858 5857 5856 5855 5855 5853 5852 5851 5849 5848 5847 5846 5845 5845 5844 5843 5843 5842 5841 5840 5839 5838 5837 5836 5834 5833 5832 5831 5829 5828 5826 5825 5824 5822 5821 5819 5818 5817 5816 5815 5814 5813 5811 5810 5809
5807 5808 5810 5812 5814 5816 5818 5820 5822 5824 5825 5827 5829 5831 5832 5833 5835 5836 5837 5838 5839 5841 5842 5844 5843 5842 5845 5850 5852 5852 5853 5854 5854 5854 5854 5855 5856 5856 5856 5856 5855 5855 5854 5853 5852 5851 5850 5849 5848 5846 5844 5844 5843 5841 5841 5840 5840 5839 5838 5837 5836 5836 5835 5833 5832 5831 5829 5828 5827 5825 5824 5822 5821 5820 5819 5817 5816 5815 5814 5813 5812 5810 5809 5808 5806 5805
5804 5806 5807 5809 5811 5813 5815 5817 5818 5820 5821 5823 5825 5826 5828 5829 5831 5832 5833 5835 5836 5837 5839 5841 5841 5838 5839 5845 5848 5848 5849 5850 5851 5852 5851 5851 5852 5852 5852 5852 5851 5850 5850 5849 5848 5847 5846 5846 5845 5844 5841 5840 5839 5838 5837 5836 5835 5835 5834 5833 5833 5832 5831 5830 5828 5827 5826 5824 5823 5821 5820 5818 5817 5816 5815 5814 5812 5811 5810 5809 5808 5806 5805 5804 5803 5802
5800 5802 5803 5805 5807 5809 5811 5812 5814 5815 5817 5819 5821 5823 5824 5825 5827 5828 5829 5831 5832 5833 5835 5837 5838 5836 5834 5838 5843 5844 5845 5846 5847 5848 5848 5848 5848 5847 5848 5847 5846 5846 5845 5844 5844 5843 5843 5843 5842 5842 5840 5837 5836 5834 5833 5832 5831 5831 5830 5829 5829 5828 5827 5826 5824 5823 5821 5820 5819 5817 5816 5814 5813 5812 5811 5810 5809 5807 5806 5805 5804 5803 5801 5800 5799 5798
5796 5798 5799 5801 5803 5805 5808 5809 5810 5812 5813 5816 5817 5819 5820 5821 5823 5824 5826 5828 5828 5829 5831 5833 5835 5835 5831 5832 5837 5839 5840 5842 5843 5843 5842 5842 5842 5842 5842 5842 5842 5841 5840 5840 5839 5839 5839 5839 5838 5838 5836 5835 5833 5831 5829 5828 5827 5827 5827 5826 5825 5824 5823 5822 5820 5819 5817 5815 5814 5813 5812 5810 5809 5808 5807 5806 5805 5804 5802 5801 5800 5799 5798 5797 5795 5794
5792 5794 5796 5798 5800 5802 5804 5806 5807 5808 5809 5811 5813 5814 5816 5817 5819 5820 5822 5823 5823 5825 5828 5828 5830 5832 5829 5829 5831 5831 5834 5838 5838 5837 5837 5836 5835 5836 5837 5837 5836 5836 5835 5835 5834 5834 5834 5834 5833 5832 5832 5831 5830 5828 5826 5825 5824 5824 5823 5822 5821 5820 5819 5817 5816 5814 5813 5811 5810 5809 5808 5806 5805 5804 5803 5802 5801 5800 5799 5798 5796 5795 5794 5793 5792 5790
5789 5791 5793 5795 5797 5799 5800 5801 5802 5804 5805 5807 5809 5810 5812 5813 5814 5816 5817 5818 5819 5822 5823 5824 5825 5827 5828 5829 5828 5825 5828 5832 5832 5832 5832 5831 5829 5829 5830 5831 5831 5830 5829 5829 5829 5829 5829 5829 5828 5828 5828 5827 5826 5825 5823 5822 5821 5820 5819 5818 5817 5816 5814 5813 5812 5810 5809 5807 5806 5805 5804 5802 5801 5800 5799 5798 5797 5795 5794 5793 5792 5791 5790 5789 5787 5786
5785 5787 5789 5791 5793 5794 5796 5797 5799 5800 5802 5803 5804 5805 5807 5809 5809 5811 5813 5813 5816 5818 5818 5819 5820 5821 5825 5827 5826 5824 5824 5826 5826 5826 5826 5826 5824 5823 5823 5824 5824 5824 5824 5824 5824 5824 5824 5823 5823 5823 5823 5822 5822 5820 5819 5818 5817 5817 5816 5815 5813 5812 5811 5809 5808 5806 5805 5804 5803 5801 5800 5798 5797 5796 5794 5793 5792 5791 5790 5789 5788 5787 5785 5784 5783 5781
5780 5782 5785 5787 5789 5791 5792 5793 5794 5796 5797 5797 5799 5800 5802 5804 5805 5806 5808 5809 5812 5813 5813 5815 5816 5817 5821 5824 5823 5823 5823 5821 5820 5821 5821 5821 5820 5819 5818 5818 5818 5818 5817 5817 5818 5819 5819 5818 5818 5818 5818 5818 5817 5816 5814 5813 5813 5813 5812 5811 5809 5808 5807 5805 5804 5802 5801 5800 5799 5797 5796 5794 5793 5792 5790 5789 5787 5786 5785 5784 5783 5782 5780 5779 5777 5776
5775 5778 5781 5783 5784 5786 5786 5787 5789 5790 5791 5792 5794 5796 5799 5801 5801 5801 5803 5805 5807 5807 5809 5811 5812 5815 5818 5819 5819 5820 5820 5819 5816 5816 5817 5816 5816 5815 5813 5812 5813 5813 5812 5812 5812 5813 5813 5813 5813 5813 5812 5812 5811 5810 5810 5809 5809 5808 5808 5806 5805 5804 5802 5801 5800 5799 5798 5796 5795 5793 5792 5790 5789 5788 5786 5785 5783 5782 5780 5779 5778 5777 5775 5774 5772 5771
5771 5774 5777 5778 5779 5781 5781 5782 5784 5785 5786 5788 5790 5793 5795 5796 5795 5796 5797 5799 5800 5801 5804 5807 5809 5812 5814 5813 5814 5815 5816 5815 5813 5813 5813 5812 5811 5810 5808 5807 5806 5808 5808 5807 5807 5808 5807 5807 5807 5808 5807 5806 5805 5804 5804 5804 5804 5803 5802 5801 5800 5799 5798 5797 5796 5795 5794 5792 5790 5789 5788 5786 5785 5783 5782 5780 5779 5777 5776 5775 5773 5772 5770 5769 5768 5766
5766 5768 5770 5772 5773 5774 5776 5777 5778 5780 5782 5784 5786 5789 5790 5789 5790 5792 5792 5794 5795 5795 5800 5803 5805 5808 5809 5809 5810 5811 5810 5810 5810 5810 5809 5808 5807 5806 5805 5803 5801 5802 5803 5802 5802 5802 5801 5800 5801 5802 5802 5801 5799 5798 5798 5799 5799 5798 5797 5796 5795 5794 5793 5793 5792 5790 5789 5787 5786 5784 5783 5782 5780 5779 5777 5776 5774 5773 5771 5770 5768 5767 5765 5764 5762 5761
5760 5761 5762 5765 5767 5768 5770 5771 5773 5776 5778 5779 5782 5783 5784 5783 5785 5787 5787 5789 5791 5791 5794 5798 5800 5802 5805 5806 5806 5806 5805 5805 5805 5805 5805 5804 5803 5801 5801 5800 5799 5798 5798 5798 5798 5797 5795 5793 5795 5797 5797 5796 5794 5793 5793 5794 5794 5793 5792 5792 5791 5790 5789 5788 5787 5786 5784 5783 5781 5780 5779 5777 5776 5774 5773 5771 5770 5768 5766 5765 5763 5762 5760 5759 5757 5756
5755 5756 5757 5759 5762 5762 5764 5766 5770 5772 5773 5774 5776 5777 5779 5780 5781 5783 5783 5784 5786 5786 5788 5791 5793 5797 5801 5803 5802 5801 5801 5801 5800 5800 5799 5798 5797 5796 5795 5796 5795 5795 5794 5794 5793 5792 5790 5788 5789 5791 5792 5791 5789 5788 5788 5788 5788 5788 5787 5786 5786 5785 5784 5783 5782 5781 5779 5778 5777 5775 5774 5772 5771 5769 5768 5766 5765 5763 5761 5760 5758 5757 5755 5754 5752 5751
5749 5750 5751 5754 5755 5756 5759 5763 5766 5768 5767 5769 5770 5772 5774 5776 5776 5777 5777 5779 5780 5781 5782 5784 5786 5792 5797 5798 5797 5797 5797 5796 5795 5795 5793 5791 5790 5790 5790 5790 5790 5789 5789 5788 5787 5786 5785 5784 5783 5785 5786 5785 5784 5783 5783 5783 5782 5781 5781 5781 5781 5781 5779 5778 5777 5776 5774 5773 5771 5770 5768 5767 5766 5764 5763 5761 5759 5758 5756 5755 5753 5751 5750 5748 5747 5745
5743 5744 5746 5747 5748 5752 5756 5759 5760 5761 5761 5763 5764 5767 5769 5770 5770 5770 5770 5772 5774 5775 5777 5778 5780 5787 5792 5792 5793 5793 5792 5791 5791 5789 5787 5785 5785 5785 5784 5784 5785 5784 5783 5782 5781 5780 5778 5777 5777 5778 5779 5778 5778 5778 5778 5777 5776 5775 5775 5775 5776 5775 5774 5773 5772 5770 5768 5767 5766 5764 5763 5762 5760 5759 5758 5756 5754 5752 5751 5749 5748 5746 5744 5743 5741 5739
5737 5737 5739 5741 5744 5748 5750 5751 5753 5754 5755 5756 5758 5761 5763 5762 5763 5763 5763 5767 5768 5769 5772 5773 5775 5781 5786 5787 5787 5787 5786 5786 5784 5783 5782 5781 5780 5780 5778 5779 5779 5778 5777 5776 5775 5774 5772 5771 5771 5771 5771 5772 5772 5773 5772 5772 5770 5769 5769 5769 5769 5768 5768 5767 5765 5764 5762 5761 5759 5758 5757 5756 5755 5753 5752 5750 5749 5747 5745 5744 5742 5740 5739 5737 5735 5734
5728 5728 5732 5734 5737 5740 5741 5743 5746 5747 5748 5750 5753 5756 5756 5756 5757 5757 5757 5760 5761 5763 5768 5767 5768 5776 5781 5781 5781 5780 5780 5779 5778 5777 5776 5774 5774 5774 5773 5773 5773 5773 5772 5770 5768 5768 5767 5765 5765 5764 5764 5765 5767 5767 5767 5766 5766 5765 5764 5763 5762 5761 5760 5759 5759 5757 5756 5754 5753 5752 5751 5750 5749 5747 5746 5745 5743 5742 5740 5739 5737 5735 5734 5732 5730 5728
5720 5721 5725 5727 5728 5731 5732 5735 5739 5741 5743 5744 5747 5749 5749 5750 5751 5750 5751 5752 5752 5759 5762 5759 5762 5770 5774 5775 5775 5773 5773 5773 5770 5770 5768 5767 5767 5767 5767 5767 5767 5767 5766 5764 5763 5762 5761 5759 5757 5757 5757 5759 5761 5762 5762 5761 5761 5760 5759 5757 5755 5754 5753 5752 5752 5750 5749 5748 5747 5746 5745 5744 5743 5741 5740 5739 5738 5736 5735 5733 5732 5730 5728 5726 5725 5723
5712 5713 5718 5718 5719 5723 5726 5731 5737 5740 5739 5739 5742 5744 5744 5745 5745 5745 5747 5745 5746 5754 5755 5750 5756 5764 5767 5769 5769 5767 5766 5766 5764 5761 5760 5760 5759 5759 5760 5760 5761 5760 5760 5759 5757 5756 5754 5752 5750 5750 5751 5753 5756 5757 5756 5756 5755 5753 5752 5750 5749 5748 5746 5746 5745 5744 5743 5742 5741 5740 5739 5738 5737 5736 5735 5734 5732 5730 5729 5727 5726 5724 5722 5721 5719 5717
5704 5706 5709 5711 5713 5718 5724 5729 5732 5732 5730 5731 5735 5737 5736 5737 5738 5738 5737 5736 5741 5746 5743 5744 5752 5755 5758 5761 5761 5761 5761 5759 5758 5755 5753 5752 5751 5750 5752 5753 5754 5754 5752 5751 5750 5748 5747 5746 5745 5745 5746 5748 5749 5749 5749 5749 5748 5746 5745 5744 5742 5741 5741 5740 5739 5738 5737 5736 5735 5734 5733 5732 5731 5730 5729 5727 5726 5725 5723 5721 5720 5718 5717 5715 5714 5712
5698 5699 5703 5706 5709 5714 5719 5721 5721 5720 5720 5722 5725 5726 5727 5728 5729 5728 5727 5732 5738 5734 5732 5742 5747 5744 5749 5755 5753 5755 5755 5751 5751 5749 5746 5745 5746 5745 5746 5747 5746 5745 5744 5744 5743 5741 5741 5741 5741 5741 5741 5741 5741 5741 5741 5741 5740 5740 5738 5737 5736 5735 5735 5734 5734 5733 5731 5731 5730 5728 5727 5726 5725 5724 5723 5721 5720 5719 5717 5716 5714 5713 5711 5709 5708 5706
5692 5694 5699 5701 5703 5708 5712 5711 5711 5712 5713 5715 5717 5718 5720 5721 5721 5721 5723 5730 5731 5723 5725 5740 5739 5733 5741 5747 5746 5748 5747 5743 5744 5742 5739 5740 5741 5741 5740 5738 5737 5737 5737 5737 5735 5734 5735 5735 5736 5736 5735 5733 5733 5733 5733 5733 5733 5732 5731 5730 5729 5728 5728 5728 5727 5726 5725 5724 5723 5721 5721 5720 5718 5717 5716 5715 5714 5712 5711 5710 5708 5706 5705 5703 5702 5700
5686 5689 5694 5695 5696 5701 5703 5703 5704 5706 5706 5707 5709 5711 5714 5715 5715 5717 5719 5723 5722 5715 5720 5730 5727 5725 5734 5738 5738 5741 5740 5737 5737 5735 5733 5734 5734 5733 5732 5729 5729 5730 5730 5729 5728 5728 5728 5729 5730 5729 5728 5726 5725 5724 5724 5724 5724 5725 5724 5723 5722 5721 5720 5720 5720 5719 5718 5717 5716 5714 5714 5713 5712 5710 5709 5708 5707 5706 5705 5704 5702 5700 5698 5697 5695 5693
5680 5684 5688 5689 5689 5691 5696 5697 5697 5697 5698 5700 5702 5704 5707 5708 5709 5711 5712 5714 5712 5709 5714 5718 5716 5719 5728 5730 5732 5734 5731 5729 5730 5727 5727 5728 5727 5725 5724 5723 5723 5723 5722 5721 5720 5721 5722 5722 5723 5721 5720 5719 5718 5717 5717 5716 5716 5716 5716 5716 5715 5714 5713 5712 5712 5711 5710 5709 5708 5707 5707 5706 5705 5704 5703 5701 5700 5699 5698 5697 5695 5694 5692 5690 5688 5686
5674 5677 5681 5683 5680 5682 5691 5693 5689 5690 5691 5689 5691 5697 5700 5702 5703 5704 5704 5705 5705 5705 5708 5708 5707 5714 5723 5724 5724 5724 5721 5719 5720 5719 5719 5720 5719 5718 5718 5718 5717 5716 5714 5713 5713 5714 5714 5714 5714 5713 5712 5711 5711 5710 5709 5709 5708 5707 5707 5707 5707 5706 5706 5705 5704 5704 5703 5702 5701 5700 5699 5698 5698 5697 5695 5694 5693 5691 5690 5689 5688 5687 5685 5683 5681 5679
5668 5670 5673 5675 5671 5675 5685 5685 5682 5683 5678 5674 5684 5694 5697 5697 5697 5695 5695 5698 5700 5700 5701 5699 5702 5710 5714 5712 5713 5714 5712 5712 5712 5712 5712 5711 5710 5710 5711 5711 5710 5709 5708 5707 5707 5707 5706 5706 5705 5704 5704 5703 5703 5702 5701 5701 5701 5699 5699 5699 5698 5698 5698 5697 5697 5696 5695 5694 5693 5692 5691 5690 5690 5689 5687 5686 5684 5683 5682 5681 5680 5678 5676 5675 5673 5671
5661 5663 5665 5666 5665 5669 5676 5677 5674 5668 5661 5667 5685 5693 5690 5689 5688 5686 5688 5692 5694 5693 5692 5693 5697 5703 5703 5703 5706 5706 5704 5704 5703 5703 5703 5702 5701 5702 5702 5702 5702 5702 5701 5700 5700 5699 5698 5697 5697 5696 5696 5696 5695 5695 5694 5694 5694 5692 5692 5692 5691 5691 5691 5690 5690 5689 5688 5688 5686 5685 5685 5683 5683 5682 5680 5678 5677 5675 5674 5673 5671 5670 5668 5666 5665 5663
5655 5657 5658 5659 5659 5661 5666 5667 5659 5651 5655 5671 5683 5683 5682 5682 5681 5679 5680 5683 5684 5684 5685 5687 5691 5696 5698 5697 5699 5697 5693 5693 5694 5693 5694 5694 5694 5695 5695 5694 5695 5694 5693 5693 5692 5691 5690 5690 5689 5689 5688 5688 5688 5688 5688 5687 5686 5685 5684 5684 5684 5684 5683 5683 5682 5681 5681 5680 5678 5677 5677 5676 5676 5675 5673 5671 5670 5668 5667 5665 5663 5662 5659 5658 5657 5655
5649 5650 5650 5652 5652 5653 5655 5653 5646 5647 5658 5669 5672 5674 5677 5675 5673 5672 5671 5674 5678 5679 5679 5682 5686 5690 5691 5689 5688 5687 5685 5685 5686 5686 5687 5687 5687 5687 5687 5687 5687 5686 5685 5685 5684 5684 5683 5683 5682 5682 5681 5681 5681 5681 5680 5680 5679 5678 5677 5676 5676 5676 5675 5675 5675 5674 5673 5672 5670 5669 5669 5668 5667 5667 5665 5664 5663 5661 5659 5657 5656 5654 5652 5651 5649 5647
5641 5642 5643 5643 5642 5644 5645 5643 5643 5646 5651 5657 5663 5669 5671 5667 5666 5667 5663 5665 5672 5673 5673 5676 5679 5682 5682 5680 5679 5678 5677 5678 5678 5679 5680 5680 5679 5679 5679 5679 5678 5677 5677 5676 5676 5676 5676 5675 5675 5675 5674 5674 5674 5674 5674 5673 5672 5671 5670 5669 5669 5668 5668 5667 5667 5666 5665 5664 5662 5661 5660 5659 5658 5658 5656 5655 5654 5652 5651 5649 5648 5646 5644 5642 5641 5639
5631 5632 5634 5635 5633 5636 5637 5636 5637 5635 5637 5649 5660 5663 5663 5661 5661 5661 5654 5655 5664 5668 5667 5670 5672 5673 5674 5672 5670 5670 5669 5669 5670 5671 5673 5672 5671 5671 5671 5670 5670 5669 5669 5668 5668 5668 5668 5668 5668 5668 5668 5667 5667 5667 5667 5666 5665 5664 5663 5662 5662 5661 5661 5660 5660 5658 5658 5656 5655 5653 5652 5650 5650 5649 5647 5646 5644 5643 5641 5640 5638 5636 5634 5633 5632 5630
5624 5623 5627 5627 5625 5628 5628 5627 5626 5624 5631 5648 5655 5654 5654 5654 5653 5651 5643 5645 5660 5666 5662 5662 5663 5664 5666 5664 5663 5662 5660 5660 5662 5663 5663 5664 5663 5663 5662 5662 5662 5661 5661 5661 5660 5660 5661 5661 5660 5660 5661 5660 5659 5659 5659 5658 5657 5656 5656 5655 5655 5654 5654 5653 5652 5651 5650 5649 5647 5645 5644 5642 5641 5640 5638 5637 5635 5633 5631 5630 5628 5626 5624 5623 5621 5619
5616 5616 5618 5617 5616 5619 5620 5618 5617 5618 5628 5642 5646 5644 5646 5646 5644 5639 5632 5640 5659 5661 5654 5654 5655 5655 5657 5656 5654 5653 5652 5652 5654 5654 5653 5654 5653 5653 5653 5653 5654 5654 5654 5654 5653 5653 5653 5653 5653 5652 5652 5653 5652 5651 5651 5650 5649 5648 5647 5647 5647 5646 5646 5645 5644 5643 5641 5640 5639 5637 5635 5633 5632 5630 5629 5627 5625 5624 5622 5620 5617 5615 5613 5612 5610 5608
5607 5608 5609 5609 5610 5613 5612 5611 5611 5613 5624 5636 5638 5637 5638 5636 5631 5627 5629 5642 5652 5649 5645 5646 5645 5646 5649 5648 5647 5647 5645 5645 5646 5645 5645 5645 5644 5644 5644 5644 5644 5645 5645 5646 5646 5645 5645 5645 5644 5644 5644 5645 5645 5644 5643 5642 5641 5640 5639 5638 5638 5637 5637 5636 5635 5634 5632 5631 5629 5627 5625 5623 5622 5621 5619 5617 5615 5614 5612 5610 5607 5605 5603 5601 5599 5598
5599 5600 5600 5602 5604 5606 5606 5606 5604 5606 5618 5630 5629 5627 5627 5623 5620 5623 5631 5638 5638 5637 5638 5638 5636 5637 5640 5640 5640 5640 5638 5638 5639 5638 5638 5638 5637 5637 5637 5636 5636 5637 5637 5637 5638 5637 5637 5636 5635 5635 5635 5635 5636 5635 5635 5634 5633 5631 5630 5629 5629 5628 5627 5626 5625 5624 5622 5621 5619 5618 5616 5614 5613 5611 5610 5608 5606 5605 5603 5600 5598 5596 5594 5591 5589 5587
5593 5593 5592 5594 5598 5599 5599 5599 5596 5600 5614 5623 5619 5617 5617 5616 5617 5622 5626 5626 5625 5628 5630 5628 5628 5629 5630 5631 5633 5633 5632 5632 5631 5631 5631 5631 5631 5631 5630 5630 5630 5630 5630 5631 5630 5630 5630 5628 5628 5627 5626 5626 5627 5626 5626 5626 5624 5623 5621 5620 5620 5619 5618 5617 5615 5614 5613 5611 5610 5609 5607 5605 5603 5601 5599 5598 5596 5595 5593 5591 5588 5586 5584 5581 5579 5577
5584 5585 5585 5589 5593 5591 5590 5590 5591 5598 5609 5612 5609 5609 5611 5611 5613 5615 5616 5616 5617 5618 5619 5620 5620 5620 5621 5623 5625 5624 5625 5625 5623 5624 5625 5624 5624 5624 5623 5623 5624 5623 5623 5624 5623 5623 5623 5621 5620 5619 5618 5618 5618 5617 5617 5617 5616 5614 5613 5612 5611 5610 5609 5607 5606 5604 5603 5601 5600 5599 5597 5595 5593 5591 5589 5587 5585 5584 5583 5580 5577 5575 5573 5570 5568 5566
5577 5580 5581 5584 5586 5584 5583 5587 5590 5595 5600 5601 5601 5603 5603 5603 5605 5606 5607 5609 5610 5610 5612 5614 5613 5613 5614 5615 5616 5616 5617 5617 5616 5617 5617 5617 5618 5618 5617 5617 5617 5616 5616 5616 5615 5615 5615 5613 5613 5612 5610 5610 5610 5609 5607 5606 5606 5605 5604 5603 5603 5602 5600 5598 5596 5594 5593 5591 5589 5588 5586 5584 5582 5579 5578 5576 5573 5572 5570 5567 5565 5563 5560 5558 5556 5554
5571 5574 5575 5576 5577 5577 5578 5582 5585 5588 5590 5592 5594 5595 5596 5597 5599 5600 5600 5601 5602 5603 5606 5607 5607 5607 5607 5607 5609 5610 5609 5609 5610 5610 5609 5610 5610 5610 5610 5610 5610 5609 5609 5608 5607 5607 5607 5606 5605 5604 5603 5601 5601 5600 5598 5596 5596 5596 5595 5593 5592 5591 5590 5588 5586 5584 5582 5580 5579 5576 5574 5573 5570 5568 5565 5563 5561 5559 5556 5554 5552 5550 5548 5546 5543 5541
5564 5566 5568 5568 5569 5570 5572 5575 5580 5581 5582 5585 5586 5587 5589 5590 5591 5592 5593 5594 5595 5597 5599 5600 5601 5600 5600 5600 5601 5601 5601 5601 5602 5601 5602 5603 5602 5602 5603 5602 5601 5602 5601 5600 5600 5599 5599 5598 5597 5596 5594 5593 5591 5590 5589 5586 5585 5585 5584 5583 5581 5579 5578 5576 5575 5574 5572 5569 5567 5565 5562 5560 5558 5556 5553 5551 5548 5546 5544 5541 5540 5538 5536 5534 5531 5529
5556 5558 5559 5560 5562 5564 5565 5568 5572 5573 5574 5577 5579 5580 5582 5583 5584 5586 5587 5587 5589 5590 5591 5592 5593 5592 5593 5593 5593 5593 5593 5593 5592 5593 5593 5594 5594 5594 5594 5593 5592 5592 5592 5591 5592 5591 5590 5589 5588 5586 5585 5583 5581 5580 5578 5576 5574 5573 5573 5572 5570 5568 5566 5564 5562 5562 5560 5557 5555 5553 5550 5548 5546 5543 5541 5538 5536 5534 5532 5529 5527 5526 5524 5522 5519 5518
5548 5550 5551 5553 5554 5555 5558 5561 5565 5566 5568 5570 5572 5573 5575 5576 5577 5579 5580 5580 5581 5582 5583 5584 5584 5585 5585 5585 5585 5586 5585 5584 5584 5584 5584 5585 5585 5585 5584 5584 5584 5583 5582 5581 5581 5580 5580 5579 5578 5577 5575 5573 5572 5570 5568 5565 5563 5562 5561 5561 5558 5556 5555 5553 5551 5549 5547 5545 5543 5540 5538 5536 5533 5530 5528 5525 5523 5520 5518 5516 5515 5513 5512 5510 5507 5506
5541 5542 5545 5546 5546 5549 5554 5556 5557 5559 5561 5562 5564 5565 5566 5567 5568 5570 5571 5572 5573 5574 5575 5576 5576 5577 5577 5577 5578 5578 5578 5577 5576 5576 5576 5576 5576 5575 5575 5575 5574 5574 5573 5572 5571 5569 5569 5568 5567 5567 5566 5564 5562 5560 5557 5555 5552 5550 5549 5548 5546 5544 5543 5541 5539 5538 5535 5532 5530 5528 5526 5524 5521 5518 5515 5513 5510 5508 5506 5504 5502 5500 5499 5497 5495 5494
5535 5537 5539 5540 5541 5544 5548 5549 5549 5551 5553 5554 5555 5556 5557 5559 5560 5561 5562 5563 5564 5565 5566 5567 5567 5568 5569 5570 5570 5570 5570 5569 5569 5568 5568 5568 5567 5566 5566 5565 5565 5564 5564 5563 5562 5560 5558 5557 5556 5555 5554 5553 5551 5549 5546 5544 5541 5539 5538 5535 5533 5531 5529 5527 5526 5525 5523 5520 5518 5515 5514 5512 5510 5507 5504 5501 5499 5496 5494 5492 5490 5488 5486 5484 5482 5481